| time (UTC) | temp F | wind direction | speed MPH | gust MPH | rain 1hr in | rain 24hr in | rain mn in | humidity % | barometer mb |
| 20260906194043 | 78 | 108 | 1.0 | 4.0 | 0.00 | 0.00 | 0.00 | 87 | 1016.6 |
| 20260906193543 | 79 | 0 | 1.0 | 4.0 | 0.00 | 0.00 | 0.00 | 86 | 1016.7 |
| 20260906193101 | 79 | 117 | 1.0 | 4.0 | 0.00 | 0.00 | 0.00 | 86 | 1016.8 |
| 20260906192542 | 79 | 0 | 0.0 | 4.0 | 0.00 | 0.00 | 0.00 | 87 | 1016.8 |
| 20260906192043 | 79 | 107 | 0.0 | 4.0 | 0.00 | 0.00 | 0.00 | 88 | 1016.9 |
| 20260906191602 | 78 | 111 | 0.0 | 3.0 | 0.00 | 0.00 | 0.00 | 88 | 1017.0 |
| 20260906191043 | 78 | 0 | 0.0 | 5.0 | 0.00 | 0.00 | 0.00 | 88 | 1016.8 |
| 20260906190543 | 78 | 0 | 0.0 | 6.0 | 0.00 | 0.00 | 0.00 | 88 | 1016.9 |
| 20260906190116 | 78 | 144 | 0.0 | 6.0 | 0.00 | 0.00 | 0.00 | 88 | 1017.0 |
| 20260906185542 | 78 | 0 | 0.0 | 6.0 | 0.00 | 0.00 | 0.00 | 88 | 1017.0 |
| 20260906185042 | 78 | 0 | 1.0 | 6.0 | 0.00 | 0.00 | 0.00 | 88 | 1017.1 |
| 20260906184555 | 78 | 127 | 0.0 | 6.0 | 0.00 | 0.00 | 0.00 | 88 | 1017.2 |
| 20260906184043 | 78 | 137 | 0.0 | 4.0 | 0.00 | 0.00 | 0.00 | 87 | 1017.1 |
| 20260906183544 | 79 | 0 | 0.0 | 4.0 | 0.00 | 0.00 | 0.00 | 88 | 1017.2 |
| 20260906183105 | 79 | 0 | 0.0 | 4.0 | 0.00 | 0.00 | 0.00 | 88 | 1017.1 |
| 20260906182543 | 79 | 0 | 0.0 | 3.0 | 0.00 | 0.00 | 0.00 | 88 | 1017.1 |
| 20260906182046 | 79 | 0 | 0.0 | 4.0 | 0.00 | 0.00 | 0.00 | 89 | 1017.1 |
| 20260906181605 | 79 | 0 | 0.0 | 4.0 | 0.00 | 0.00 | 0.00 | 88 | 1017.0 |
| 20260906181042 | 79 | 169 | 0.0 | 4.0 | 0.00 | 0.00 | 0.00 | 88 | 1017.0 |
| 20260906180543 | 79 | 128 | 0.0 | 3.0 | 0.00 | 0.00 | 0.00 | 88 | 1017.0 |
| 20260906180056 | 79 | 0 | 0.0 | 3.0 | 0.00 | 0.00 | 0.00 | 88 | 1017.1 |
| 20260906175542 | 79 | 114 | 0.0 | 3.0 | 0.00 | 0.00 | 0.00 | 88 | 1017.0 |
| 20260906175043 | 79 | 0 | 0.0 | 3.0 | 0.00 | 0.00 | 0.00 | 88 | 1017.1 |
| 20260906174552 | 79 | 0 | 0.0 | 3.0 | 0.00 | 0.00 | 0.00 | 88 | 1017.2 |
| 20260906174043 | 79 | 0 | 0.0 | 3.0 | 0.00 | 0.00 | 0.00 | 88 | 1017.1 |
| 20260906173542 | 79 | 0 | 0.0 | 3.0 | 0.00 | 0.00 | 0.00 | 88 | 1017.3 |
| 20260906173058 | 78 | 0 | 1.0 | 3.0 | 0.00 | 0.00 | 0.00 | 87 | 1017.4 |
| 20260906172544 | 79 | 107 | 1.0 | 4.0 | 0.00 | 0.00 | 0.00 | 87 | 1017.3 |
| 20260906172042 | 78 | 0 | 0.0 | 4.0 | 0.00 | 0.00 | 0.00 | 88 | 1017.5 |
| 20260906171556 | 77 | 132 | 0.0 | 6.0 | 0.00 | 0.00 | 0.00 | 88 | 1017.5 |
| 20260906171042 | 77 | 0 | 0.0 | 6.0 | 0.00 | 0.00 | 0.00 | 90 | 1017.7 |
| 20260906170542 | 76 | 115 | 0.0 | 4.0 | 0.00 | 0.00 | 0.00 | 89 | 1017.8 |
| 20260906170106 | 76 | 126 | 2.0 | 4.0 | 0.00 | 0.00 | 0.00 | 88 | 1017.9 |
| 20260906165543 | 76 | 144 | 1.0 | 4.0 | 0.00 | 0.00 | 0.00 | 89 | 1018.1 |
| 20260906165042 | 76 | 109 | 0.0 | 4.0 | 0.00 | 0.00 | 0.00 | 88 | 1018.2 |
| 20260906164601 | 76 | 0 | 0.0 | 3.0 | 0.00 | 0.00 | 0.00 | 90 | 1018.3 |
| 20260906164042 | 75 | 0 | 0.0 | 3.0 | 0.00 | 0.00 | 0.00 | 91 | 1018.2 |
| 20260906163540 | 74 | 0 | 0.0 | 7.0 | 0.00 | 0.00 | 0.00 | 90 | 1018.1 |
| 20260906163101 | 74 | 111 | 1.0 | 7.0 | 0.00 | 0.00 | 0.00 | 90 | 1018.1 |
| 20260906162543 | 74 | 0 | 0.0 | 4.0 | 0.00 | 0.00 | 0.00 | 91 | 1018.1 |
| 20260906162042 | 74 | 138 | 1.0 | 4.0 | 0.00 | 0.00 | 0.00 | 90 | 1018.0 |
| 20260906161602 | 74 | 110 | 0.0 | 3.0 | 0.00 | 0.00 | 0.00 | 91 | 1018.1 |
| 20260906161043 | 74 | 0 | 0.0 | 3.0 | 0.00 | 0.00 | 0.00 | 92 | 1018.1 |
| 20260906160542 | 73 | 98 | 0.0 | 3.0 | 0.00 | 0.00 | 0.00 | 93 | 1018.2 |
| 20260906160113 | 72 | 0 | 1.0 | 4.0 | 0.00 | 0.00 | 0.00 | 93 | 1018.3 |
| 20260906155543 | 72 | 115 | 1.0 | 4.0 | 0.00 | 0.00 | 0.00 | 93 | 1018.3 |
| 20260906155042 | 72 | 107 | 2.0 | 3.0 | 0.00 | 0.00 | 0.00 | 93 | 1018.2 |
| 20260906154603 | 71 | 104 | 1.0 | 3.0 | 0.00 | 0.00 | 0.00 | 94 | 1018.3 |
| 20260906154042 | 71 | 105 | 0.0 | 3.0 | 0.00 | 0.00 | 0.00 | 94 | 1018.3 |
| 20260906153542 | 71 | 101 | 2.0 | 4.0 | 0.00 | 0.00 | 0.00 | 94 | 1018.3 |
| 20260906153100 | 71 | 119 | 1.0 | 4.0 | 0.00 | 0.00 | 0.00 | 94 | 1018.3 |
| 20260906152542 | 70 | 115 | 1.0 | 4.0 | 0.00 | 0.00 | 0.00 | 95 | 1018.3 |
| 20260906152042 | 70 | 121 | 1.0 | 4.0 | 0.00 | 0.00 | 0.00 | 95 | 1018.4 |
| 20260906151604 | 70 | 117 | 1.0 | 4.0 | 0.00 | 0.00 | 0.00 | 95 | 1018.3 |
| 20260906151042 | 70 | 111 | 1.0 | 4.0 | 0.00 | 0.00 | 0.00 | 95 | 1018.4 |
| 20260906150542 | 70 | 109 | 0.0 | 4.0 | 0.00 | 0.00 | 0.00 | 95 | 1018.3 |
| 20260906150105 | 70 | 0 | 0.0 | 4.0 | 0.00 | 0.00 | 0.00 | 96 | 1018.3 |
| 20260906145543 | 70 | 0 | 1.0 | 4.0 | 0.00 | 0.00 | 0.00 | 96 | 1018.2 |
| 20260906145043 | 70 | 167 | 1.0 | 3.0 | 0.00 | 0.00 | 0.00 | 96 | 1018.2 |
| 20260906144555 | 69 | 0 | 1.0 | 3.0 | 0.00 | 0.00 | 0.00 | 96 | 1018.3 |
| 20260906144042 | 69 | 0 | 0.0 | 4.0 | 0.00 | 0.00 | 0.00 | 96 | 1018.4 |
| 20260906143543 | 69 | 119 | 1.0 | 4.0 | 0.00 | 0.00 | 0.00 | 96 | 1018.6 |
| 20260906143104 | 69 | 100 | 1.0 | 4.0 | 0.00 | 0.00 | 0.00 | 96 | 1018.5 |
| 20260906142543 | 69 | 110 | 1.0 | 4.0 | 0.00 | 0.00 | 0.00 | 97 | 1018.5 |
| 20260906142043 | 69 | 119 | 1.0 | 4.0 | 0.00 | 0.00 | 0.00 | 96 | 1018.6 |
| 20260906141604 | 69 | 116 | 1.0 | 4.0 | 0.00 | 0.00 | 0.00 | 97 | 1018.7 |
| 20260906141040 | 69 | 111 | 1.0 | 4.0 | 0.00 | 0.00 | 0.00 | 97 | 1018.7 |
| 20260906140543 | 69 | 123 | 1.0 | 4.0 | 0.00 | 0.00 | 0.00 | 97 | 1018.7 |
| 20260906140057 | 69 | 112 | 2.0 | 4.0 | 0.00 | 0.00 | 0.00 | 97 | 1018.7 |
| 20260906135542 | 69 | 0 | 2.0 | 4.0 | 0.00 | 0.00 | 0.00 | 97 | 1018.4 |
| 20260906135042 | 69 | 130 | 1.0 | 4.0 | 0.00 | 0.00 | 0.00 | 98 | 1018.4 |
| 20260906134603 | 69 | 136 | 2.0 | 4.0 | 0.00 | 0.00 | 0.00 | 98 | 1018.5 |
| 20260906134040 | 68 | 113 | 2.0 | 4.0 | 0.00 | 0.00 | 0.00 | 98 | 1018.6 |
| 20260906133542 | 68 | 115 | 0.0 | 3.0 | 0.00 | 0.00 | 0.00 | 98 | 1018.7 |
| 20260906133123 | 68 | 0 | 0.0 | 4.0 | 0.00 | 0.00 | 0.00 | 98 | 1018.8 |
| 20260906132543 | 68 | 0 | 1.0 | 4.0 | 0.00 | 0.00 | 0.00 | 98 | 1018.7 |
| 20260906132043 | 68 | 0 | 0.0 | 4.0 | 0.00 | 0.00 | 0.00 | 98 | 1018.7 |
| 20260906131605 | 67 | 0 | 0.0 | 4.0 | 0.00 | 0.00 | 0.00 | 98 | 1018.8 |
| 20260906131042 | 67 | 0 | 0.0 | 4.0 | 0.00 | 0.00 | 0.00 | 98 | 1019.0 |
| 20260906130540 | 67 | 0 | 0.0 | 3.0 | 0.00 | 0.00 | 0.00 | 98 | 1019.1 |
| 20260906130058 | 67 | 0 | 0.0 | 3.0 | 0.00 | 0.00 | 0.00 | 98 | 1019.1 |
| 20260906125539 | 67 | 111 | 0.0 | 2.0 | 0.00 | 0.00 | 0.00 | 98 | 1019.0 |
| 20260906125039 | 67 | 0 | 0.0 | 3.0 | 0.00 | 0.00 | 0.00 | 98 | 1019.0 |
| 20260906124610 | 66 | 0 | 0.0 | 3.0 | 0.00 | 0.00 | 0.00 | 98 | 1019.0 |
| 20260906124043 | 66 | 0 | 0.0 | 3.0 | 0.00 | 0.00 | 0.00 | 98 | 1018.7 |
| 20260906123547 | 66 | 107 | 0.0 | 4.0 | 0.00 | 0.00 | 0.00 | 98 | 1018.6 |
| 20260906123053 | 66 | 0 | 0.0 | 4.0 | 0.00 | 0.00 | 0.00 | 98 | 1018.7 |
| 20260906122542 | 66 | 107 | 0.0 | 3.0 | 0.00 | 0.00 | 0.00 | 98 | 1018.7 |
| 20260906122042 | 66 | 0 | 0.0 | 2.0 | 0.00 | 0.00 | 0.00 | 98 | 1018.5 |
| 20260906121602 | 66 | 0 | 0.0 | 0.0 | 0.00 | 0.00 | 0.00 | 98 | 1018.5 |
| 20260906121042 | 66 | 0 | 0.0 | 0.0 | 0.00 | 0.00 | 0.00 | 98 | 1018.7 |
| 20260906120542 | 66 | 0 | 0.0 | 0.0 | 0.00 | 0.00 | 0.00 | 98 | 1018.7 |
| 20260906120056 | 66 | 0 | 0.0 | 0.0 | 0.00 | 0.00 | 0.00 | 98 | 1018.8 |
| 20260906115542 | 66 | 0 | 0.0 | 0.0 | 0.00 | 0.00 | 0.00 | 98 | 1018.4 |
| 20260906115041 | 66 | 0 | 0.0 | 2.0 | 0.00 | 0.00 | 0.00 | 98 | 1018.4 |
| 20260906114611 | 66 | 0 | 0.0 | 3.0 | 0.00 | 0.00 | 0.00 | 98 | 1018.3 |
| 20260906114038 | 66 | 107 | 0.0 | 3.0 | 0.00 | 0.00 | 0.00 | 98 | 1018.1 |
| 20260906113542 | 66 | 125 | 0.0 | 1.0 | 0.00 | 0.00 | 0.00 | 98 | 1018.1 |
| 20260906113101 | 66 | 0 | 0.0 | 2.0 | 0.00 | 0.00 | 0.00 | 98 | 1018.3 |
| 20260906112542 | 66 | 0 | 0.0 | 2.0 | 0.00 | 0.00 | 0.00 | 98 | 1018.3 |
| 20260906112042 | 66 | 0 | 0.0 | 2.0 | 0.00 | 0.00 | 0.00 | 98 | 1018.2 |
| 20260906111603 | 65 | 0 | 0.0 | 2.0 | 0.00 | 0.00 | 0.00 | 98 | 1018.2 |
| 20260906111042 | 65 | 0 | 0.0 | 2.0 | 0.00 | 0.00 | 0.00 | 98 | 1018.2 |
| 20260906110546 | 65 | 0 | 0.0 | 2.0 | 0.00 | 0.00 | 0.00 | 98 | 1018.0 |
| 20260906110053 | 65 | 0 | 0.0 | 2.0 | 0.00 | 0.00 | 0.00 | 98 | 1018.1 |
| 20260906105541 | 65 | 0 | 0.0 | 3.0 | 0.00 | 0.00 | 0.00 | 98 | 1018.1 |
| 20260906105041 | 65 | 0 | 0.0 | 3.0 | 0.00 | 0.00 | 0.00 | 98 | 1018.0 |
| 20260906104629 | 65 | 123 | 0.0 | 3.0 | 0.00 | 0.00 | 0.00 | 98 | 1018.0 |
| 20260906104042 | 65 | 0 | 0.0 | 3.0 | 0.00 | 0.00 | 0.00 | 98 | 1017.9 |
| 20260906103542 | 65 | 0 | 0.0 | 3.0 | 0.00 | 0.00 | 0.00 | 98 | 1018.0 |
| 20260906103057 | 65 | 0 | 0.0 | 2.0 | 0.00 | 0.00 | 0.00 | 98 | 1018.0 |
| 20260906102542 | 65 | 0 | 0.0 | 1.0 | 0.00 | 0.00 | 0.00 | 98 | 1018.0 |
| 20260906102043 | 65 | 0 | 0.0 | 0.0 | 0.00 | 0.00 | 0.00 | 98 | 1018.1 |
| 20260906101600 | 65 | 0 | 0.0 | 2.0 | 0.00 | 0.00 | 0.00 | 98 | 1018.3 |
| 20260906101041 | 65 | 0 | 0.0 | 3.0 | 0.00 | 0.00 | 0.00 | 98 | 1018.3 |
| 20260906100539 | 65 | 0 | 0.0 | 3.0 | 0.00 | 0.00 | 0.00 | 97 | 1018.2 |
| 20260906100051 | 65 | 114 | 0.0 | 3.0 | 0.00 | 0.00 | 0.00 | 98 | 1018.1 |
| 20260906095543 | 65 | 108 | 1.0 | 3.0 | 0.00 | 0.00 | 0.00 | 98 | 1018.1 |
| 20260906095042 | 65 | 113 | 0.0 | 3.0 | 0.00 | 0.00 | 0.00 | 98 | 1018.1 |
| 20260906094600 | 65 | 0 | 0.0 | 3.0 | 0.00 | 0.00 | 0.00 | 97 | 1018.1 |
| 20260906094042 | 65 | 0 | 1.0 | 3.0 | 0.00 | 0.00 | 0.00 | 97 | 1018.0 |
| 20260906093542 | 65 | 0 | 0.0 | 1.0 | 0.00 | 0.00 | 0.00 | 97 | 1018.0 |
| 20260906093113 | 65 | 0 | 0.0 | 3.0 | 0.00 | 0.00 | 0.00 | 97 | 1017.9 |
| 20260906092539 | 65 | 0 | 0.0 | 3.0 | 0.00 | 0.00 | 0.00 | 97 | 1017.9 |
| 20260906092042 | 65 | 114 | 0.0 | 3.0 | 0.00 | 0.00 | 0.00 | 97 | 1017.8 |
| 20260906091556 | 65 | 104 | 0.0 | 3.0 | 0.00 | 0.00 | 0.00 | 97 | 1017.8 |
| 20260906091039 | 65 | 0 | 0.0 | 3.0 | 0.00 | 0.00 | 0.00 | 97 | 1017.9 |
| 20260906090540 | 65 | 110 | 0.0 | 3.0 | 0.00 | 0.00 | 0.00 | 97 | 1017.9 |
| 20260906090054 | 65 | 0 | 0.0 | 3.0 | 0.00 | 0.00 | 0.00 | 97 | 1017.8 |
| 20260906085541 | 65 | 0 | 0.0 | 3.0 | 0.00 | 0.00 | 0.00 | 97 | 1018.0 |
| 20260906085043 | 65 | 0 | 0.0 | 2.0 | 0.00 | 0.00 | 0.00 | 97 | 1017.9 |
| 20260906084601 | 65 | 0 | 0.0 | 2.0 | 0.00 | 0.00 | 0.00 | 96 | 1018.1 |
| 20260906084039 | 65 | 0 | 0.0 | 2.0 | 0.00 | 0.00 | 0.00 | 96 | 1018.0 |
| 20260906083540 | 65 | 0 | 0.0 | 0.0 | 0.00 | 0.00 | 0.00 | 96 | 1017.8 |
| 20260906083056 | 65 | 0 | 0.0 | 0.0 | 0.00 | 0.00 | 0.00 | 96 | 1017.8 |
| 20260906082539 | 65 | 0 | 0.0 | 0.0 | 0.00 | 0.00 | 0.00 | 96 | 1017.8 |
| 20260906082041 | 66 | 0 | 0.0 | 0.0 | 0.00 | 0.00 | 0.00 | 96 | 1017.6 |
| 20260906081553 | 66 | 0 | 0.0 | 0.0 | 0.00 | 0.00 | 0.00 | 96 | 1017.7 |
| 20260906081039 | 66 | 0 | 0.0 | 1.0 | 0.00 | 0.00 | 0.00 | 95 | 1017.6 |
| 20260906080542 | 66 | 0 | 0.0 | 1.0 | 0.00 | 0.00 | 0.00 | 95 | 1017.4 |
| 20260906080054 | 66 | 0 | 0.0 | 0.0 | 0.00 | 0.00 | 0.00 | 95 | 1017.4 |
| 20260906075540 | 66 | 0 | 0.0 | 3.0 | 0.00 | 0.00 | 0.00 | 95 | 1017.3 |
| 20260906075039 | 66 | 0 | 0.0 | 3.0 | 0.00 | 0.00 | 0.00 | 95 | 1017.2 |
| 20260906074604 | 66 | 0 | 0.0 | 3.0 | 0.00 | 0.00 | 0.00 | 95 | 1017.4 |
| 20260906074040 | 66 | 0 | 0.0 | 4.0 | 0.00 | 0.00 | 0.00 | 95 | 1017.4 |
| 20260906073540 | 67 | 0 | 0.0 | 4.0 | 0.00 | 0.00 | 0.00 | 95 | 1017.4 |
| 20260906073057 | 67 | 0 | 0.0 | 4.0 | 0.00 | 0.00 | 0.00 | 95 | 1017.4 |
| 20260906072540 | 67 | 0 | 0.0 | 4.0 | 0.00 | 0.00 | 0.00 | 94 | 1017.4 |
| 20260906072040 | 67 | 0 | 0.0 | 4.0 | 0.00 | 0.00 | 0.00 | 94 | 1017.4 |
| 20260906071557 | 67 | 78 | 0.0 | 3.0 | 0.00 | 0.00 | 0.00 | 94 | 1017.4 |
| 20260906071040 | 67 | 113 | 1.0 | 4.0 | 0.00 | 0.00 | 0.00 | 94 | 1017.4 |
| 20260906070540 | 67 | 93 | 0.0 | 4.0 | 0.00 | 0.00 | 0.00 | 94 | 1017.4 |
| 20260906070107 | 67 | 104 | 1.0 | 4.0 | 0.00 | 0.00 | 0.00 | 94 | 1017.6 |
| 20260906065543 | 67 | 106 | 0.0 | 4.0 | 0.00 | 0.00 | 0.00 | 94 | 1017.7 |
| 20260906065040 | 67 | 0 | 0.0 | 4.0 | 0.00 | 0.00 | 0.00 | 94 | 1017.8 |
| 20260906064556 | 67 | 0 | 1.0 | 3.0 | 0.00 | 0.00 | 0.00 | 94 | 1017.8 |
| 20260906064039 | 67 | 107 | 1.0 | 3.0 | 0.00 | 0.00 | 0.00 | 94 | 1017.9 |
| 20260906063538 | 67 | 121 | 0.0 | 3.0 | 0.00 | 0.00 | 0.00 | 94 | 1018.0 |
| 20260906063102 | 67 | 0 | 0.0 | 2.0 | 0.00 | 0.00 | 0.00 | 94 | 1018.1 |
| 20260906062538 | 67 | 0 | 0.0 | 2.0 | 0.00 | 0.00 | 0.00 | 94 | 1018.3 |
| 20260906062039 | 67 | 0 | 0.0 | 2.0 | 0.00 | 0.00 | 0.00 | 94 | 1018.3 |
| 20260906061558 | 67 | 110 | 0.0 | 1.0 | 0.00 | 0.00 | 0.00 | 94 | 1018.2 |
| 20260906061039 | 67 | 0 | 0.0 | 1.0 | 0.00 | 0.00 | 0.00 | 94 | 1018.2 |
| 20260906060538 | 68 | 0 | 0.0 | 3.0 | 0.00 | 0.00 | 0.00 | 93 | 1018.2 |
| 20260906060103 | 68 | 0 | 0.0 | 3.0 | 0.00 | 0.00 | 0.00 | 94 | 1018.1 |
| 20260906055540 | 67 | 0 | 0.0 | 1.0 | 0.00 | 0.00 | 0.00 | 94 | 1018.1 |
| 20260906055040 | 67 | 0 | 0.0 | 0.0 | 0.00 | 0.00 | 0.00 | 94 | 1018.1 |
| 20260906054606 | 67 | 0 | 0.0 | 0.0 | 0.00 | 0.00 | 0.00 | 94 | 1018.1 |
| 20260906054040 | 67 | 0 | 0.0 | 1.0 | 0.00 | 0.00 | 0.00 | 94 | 1018.0 |
| 20260906053539 | 67 | 0 | 0.0 | 1.0 | 0.00 | 0.00 | 0.00 | 94 | 1018.1 |
| 20260906053054 | 67 | 0 | 0.0 | 1.0 | 0.00 | 0.00 | 0.00 | 94 | 1018.1 |
| 20260906052542 | 67 | 0 | 0.0 | 1.0 | 0.00 | 0.00 | 0.00 | 93 | 1018.1 |
| 20260906052040 | 67 | 0 | 0.0 | 2.0 | 0.00 | 0.00 | 0.00 | 93 | 1018.2 |
| 20260906051603 | 67 | 0 | 0.0 | 2.0 | 0.00 | 0.00 | 0.00 | 93 | 1018.2 |
| 20260906051039 | 67 | 0 | 0.0 | 2.0 | 0.00 | 0.00 | 0.00 | 93 | 1018.2 |
| 20260906050541 | 67 | 0 | 0.0 | 0.0 | 0.00 | 0.00 | 0.00 | 93 | 1018.3 |
| 20260906050123 | 67 | 0 | 0.0 | 1.0 | 0.00 | 0.00 | 0.00 | 93 | 1018.4 |
| 20260906045539 | 67 | 0 | 0.0 | 1.0 | 0.00 | 0.00 | 0.00 | 93 | 1018.5 |
| 20260906045042 | 67 | 0 | 0.0 | 3.0 | 0.00 | 0.00 | 0.00 | 93 | 1018.3 |
| 20260906044559 | 67 | 0 | 0.0 | 3.0 | 0.00 | 0.00 | 0.00 | 94 | 1018.4 |
| 20260906044043 | 67 | 114 | 0.0 | 0.0 | 0.00 | 0.00 | 0.00 | 93 | 1018.5 |
| 20260906043544 | 67 | 0 | 0.0 | 2.0 | 0.00 | 0.00 | 0.00 | 93 | 1018.5 |
| 20260906043100 | 67 | 0 | 0.0 | 2.0 | 0.00 | 0.00 | 0.00 | 93 | 1018.5 |
| 20260906042542 | 68 | 0 | 0.0 | 1.0 | 0.00 | 0.00 | 0.00 | 93 | 1018.6 |
| 20260906042043 | 68 | 0 | 0.0 | 0.0 | 0.00 | 0.00 | 0.00 | 93 | 1018.6 |
| 20260906041602 | 68 | 0 | 0.0 | 0.0 | 0.00 | 0.00 | 0.00 | 93 | 1018.7 |
| 20260906041043 | 68 | 0 | 0.0 | 0.0 | 0.00 | 0.00 | 0.00 | 92 | 1018.6 |
| 20260906040544 | 68 | 0 | 0.0 | 0.0 | 0.00 | 0.00 | 0.00 | 92 | 1018.6 |
| 20260906040135 | 68 | 0 | 0.0 | 0.0 | 0.00 | 0.00 | 0.00 | 93 | 1018.6 |
| 20260906035543 | 68 | 0 | 0.0 | 0.0 | 0.00 | 0.00 | 0.00 | 93 | 1018.7 |
| 20260906035044 | 69 | 0 | 0.0 | 0.0 | 0.00 | 0.00 | 0.00 | 93 | 1018.6 |
| 20260906034603 | 69 | 0 | 0.0 | 0.0 | 0.00 | 0.00 | 0.00 | 92 | 1018.6 |
| 20260906034044 | 69 | 0 | 0.0 | 0.0 | 0.00 | 0.00 | 0.00 | 92 | 1018.5 |
| 20260906033543 | 69 | 0 | 0.0 | 0.0 | 0.00 | 0.00 | 0.00 | 92 | 1018.5 |
| 20260906033109 | 69 | 0 | 0.0 | 1.0 | 0.00 | 0.00 | 0.00 | 92 | 1018.1 |
| 20260906032547 | 69 | 0 | 0.0 | 1.0 | 0.00 | 0.00 | 0.00 | 92 | 1018.1 |
| 20260906032044 | 69 | 0 | 0.0 | 3.0 | 0.00 | 0.00 | 0.00 | 92 | 1018.0 |
| 20260906031605 | 69 | 0 | 0.0 | 4.0 | 0.00 | 0.00 | 0.00 | 92 | 1018.0 |
| 20260906031044 | 70 | 0 | 0.0 | 6.0 | 0.00 | 0.00 | 0.00 | 92 | 1018.0 |
| 20260906030544 | 70 | 109 | 0.0 | 6.0 | 0.00 | 0.00 | 0.00 | 91 | 1017.9 |
| 20260906030106 | 70 | 0 | 0.0 | 3.0 | 0.00 | 0.00 | 0.00 | 91 | 1017.9 |
| 20260906025543 | 70 | 0 | 0.0 | 3.0 | 0.00 | 0.00 | 0.00 | 91 | 1017.8 |
| 20260906025044 | 70 | 0 | 0.0 | 3.0 | 0.00 | 0.00 | 0.00 | 91 | 1017.7 |
| 20260906024618 | 70 | 0 | 1.0 | 4.0 | 0.00 | 0.00 | 0.00 | 91 | 1017.5 |
| 20260906024044 | 70 | 0 | 1.0 | 4.0 | 0.00 | 0.00 | 0.00 | 91 | 1017.4 |
| 20260906023543 | 70 | 122 | 1.0 | 4.0 | 0.00 | 0.00 | 0.00 | 91 | 1017.4 |
| 20260906023102 | 70 | 114 | 1.0 | 4.0 | 0.00 | 0.00 | 0.00 | 90 | 1017.5 |
| 20260906022545 | 70 | 119 | 0.0 | 4.0 | 0.00 | 0.00 | 0.00 | 90 | 1017.5 |
| 20260906022044 | 71 | 120 | 1.0 | 4.0 | 0.00 | 0.00 | 0.00 | 90 | 1017.4 |
| 20260906021605 | 71 | 107 | 1.0 | 4.0 | 0.00 | 0.00 | 0.00 | 90 | 1017.3 |
| 20260906021044 | 71 | 0 | 0.0 | 4.0 | 0.00 | 0.00 | 0.00 | 89 | 1017.4 |
| 20260906020546 | 71 | 121 | 1.0 | 4.0 | 0.00 | 0.00 | 0.00 | 90 | 1017.3 |
| 20260906020101 | 71 | 0 | 1.0 | 3.0 | 0.00 | 0.00 | 0.00 | 90 | 1017.2 |
| 20260906015544 | 71 | 139 | 1.0 | 3.0 | 0.00 | 0.00 | 0.00 | 90 | 1017.3 |
| 20260906015044 | 71 | 114 | 0.0 | 3.0 | 0.00 | 0.00 | 0.00 | 90 | 1017.3 |
| 20260906014607 | 71 | 0 | 0.0 | 2.0 | 0.00 | 0.00 | 0.00 | 89 | 1017.4 |
| 20260906014044 | 72 | 0 | 0.0 | 3.0 | 0.00 | 0.00 | 0.00 | 89 | 1017.5 |
| 20260906013544 | 72 | 109 | 0.0 | 3.0 | 0.00 | 0.00 | 0.00 | 89 | 1017.5 |
| 20260906013053 | 72 | 0 | 0.0 | 2.0 | 0.00 | 0.00 | 0.00 | 89 | 1017.5 |
| 20260906012545 | 72 | 0 | 0.0 | 2.0 | 0.00 | 0.00 | 0.00 | 90 | 1017.5 |
| 20260906012043 | 72 | 0 | 0.0 | 2.0 | 0.00 | 0.00 | 0.00 | 90 | 1017.5 |
| 20260906011557 | 72 | 0 | 0.0 | 2.0 | 0.00 | 0.00 | 0.00 | 89 | 1017.5 |
| 20260906011044 | 72 | 0 | 0.0 | 2.0 | 0.00 | 0.00 | 0.00 | 89 | 1017.5 |
| 20260906010543 | 72 | 0 | 0.0 | 1.0 | 0.00 | 0.00 | 0.00 | 89 | 1017.5 |
| 20260906005543 | 73 | 0 | 0.0 | 0.0 | 0.00 | 0.00 | 0.00 | 88 | 1017.4 |
| 20260906005043 | 73 | 0 | 0.0 | 1.0 | 0.00 | 0.00 | 0.00 | 88 | 1017.6 |
| 20260906004556 | 73 | 0 | 0.0 | 1.0 | 0.00 | 0.00 | 0.00 | 88 | 1017.4 |
| 20260906004043 | 73 | 0 | 0.0 | 1.0 | 0.00 | 0.00 | 0.00 | 87 | 1017.3 |
| 20260906003544 | 74 | 0 | 0.0 | 1.0 | 0.00 | 0.00 | 0.00 | 87 | 1017.1 |
| 20260906003057 | 74 | 109 | 0.0 | 2.0 | 0.00 | 0.00 | 0.00 | 86 | 1016.9 |
| 20260906002543 | 74 | 0 | 0.0 | 2.0 | 0.00 | 0.00 | 0.00 | 86 | 1016.6 |
| 20260906002043 | 75 | 0 | 0.0 | 2.0 | 0.00 | 0.00 | 0.00 | 85 | 1016.5 |
| 20260906001604 | 75 | 0 | 0.0 | 2.0 | 0.00 | 0.00 | 0.00 | 84 | 1016.2 |
| 20260906001042 | 75 | 0 | 0.0 | 3.0 | 0.00 | 0.00 | 0.00 | 84 | 1016.0 |
| 20260906000544 | 76 | 124 | 1.0 | 3.0 | 0.00 | 0.00 | 0.00 | 83 | 1016.0 |
| 20260905235546 | 76 | 116 | 0.0 | 4.0 | 0.00 | 0.00 | 0.00 | 83 | 1015.9 |
| 20260905235043 | 76 | 0 | 2.0 | 4.0 | 0.00 | 0.00 | 0.00 | 82 | 1015.8 |
| 20260905234611 | 76 | 112 | 2.0 | 4.0 | 0.00 | 0.00 | 0.00 | 81 | 1015.7 |
| 20260905234046 | 76 | 0 | 1.0 | 4.0 | 0.00 | 0.00 | 0.00 | 81 | 1015.7 |
| 20260905233544 | 77 | 119 | 2.0 | 4.0 | 0.00 | 0.00 | 0.00 | 81 | 1015.6 |
| 20260905233103 | 77 | 108 | 1.0 | 4.0 | 0.00 | 0.00 | 0.00 | 80 | 1015.7 |
| 20260905232542 | 77 | 117 | 1.0 | 4.0 | 0.00 | 0.00 | 0.00 | 80 | 1015.6 |
| 20260905232043 | 77 | 115 | 1.0 | 3.0 | 0.00 | 0.00 | 0.00 | 81 | 1015.7 |
| 20260905231605 | 77 | 119 | 1.0 | 4.0 | 0.00 | 0.00 | 0.00 | 80 | 1015.7 |
| 20260905231042 | 77 | 78 | 1.0 | 4.0 | 0.00 | 0.00 | 0.00 | 79 | 1015.6 |
| 20260905230542 | 78 | 112 | 0.0 | 4.0 | 0.00 | 0.00 | 0.00 | 80 | 1015.5 |
| 20260905230129 | 78 | 115 | 1.0 | 4.0 | 0.00 | 0.00 | 0.00 | 79 | 1015.5 |
| 20260905225545 | 78 | 103 | 1.0 | 4.0 | 0.00 | 0.00 | 0.00 | 79 | 1015.5 |
| 20260905225043 | 78 | 105 | 2.0 | 4.0 | 0.00 | 0.00 | 0.00 | 78 | 1015.4 |
| 20260905224556 | 78 | 116 | 1.0 | 4.0 | 0.00 | 0.00 | 0.00 | 78 | 1015.2 |
| 20260905224043 | 78 | 90 | 1.0 | 4.0 | 0.00 | 0.00 | 0.00 | 79 | 1015.5 |
| 20260905223542 | 79 | 0 | 0.0 | 4.0 | 0.00 | 0.00 | 0.00 | 78 | 1015.4 |
| 20260905223054 | 79 | 107 | 1.0 | 7.0 | 0.00 | 0.00 | 0.00 | 78 | 1015.5 |
| 20260905222546 | 78 | 0 | 2.0 | 7.0 | 0.00 | 0.00 | 0.00 | 78 | 1015.4 |
| 20260905222042 | 78 | 92 | 2.0 | 7.0 | 0.00 | 0.00 | 0.00 | 76 | 1015.5 |
| 20260905221605 | 79 | 121 | 2.0 | 6.0 | 0.00 | 0.00 | 0.00 | 76 | 1015.5 |
| 20260905221043 | 79 | 111 | 2.0 | 6.0 | 0.00 | 0.00 | 0.00 | 76 | 1015.7 |
| 20260905220543 | 79 | 0 | 1.0 | 6.0 | 0.00 | 0.00 | 0.00 | 76 | 1015.7 |
| 20260905220059 | 79 | 111 | 1.0 | 4.0 | 0.00 | 0.00 | 0.00 | 78 | 1015.6 |
| 20260905215544 | 79 | 104 | 2.0 | 4.0 | 0.00 | 0.00 | 0.00 | 77 | 1015.5 |
| 20260905215045 | 79 | 88 | 0.0 | 4.0 | 0.00 | 0.00 | 0.00 | 78 | 1015.8 |
| 20260905214556 | 79 | 107 | 1.0 | 4.0 | 0.00 | 0.00 | 0.00 | 77 | 1015.7 |
| 20260905214044 | 78 | 103 | 2.0 | 4.0 | 0.00 | 0.00 | 0.00 | 77 | 1015.7 |
| 20260905213543 | 79 | 117 | 2.0 | 6.0 | 0.00 | 0.00 | 0.00 | 76 | 1015.8 |
| 20260905213103 | 79 | 105 | 2.0 | 8.0 | 0.00 | 0.00 | 0.00 | 76 | 1016.1 |
| 20260905212544 | 79 | 101 | 2.0 | 8.0 | 0.00 | 0.00 | 0.00 | 76 | 1016.2 |
| 20260905212042 | 79 | 109 | 2.0 | 6.0 | 0.00 | 0.00 | 0.00 | 76 | 1016.1 |
| 20260905211601 | 79 | 113 | 2.0 | 8.0 | 0.00 | 0.00 | 0.00 | 75 | 1016.3 |
| 20260905211043 | 80 | 115 | 1.0 | 8.0 | 0.00 | 0.00 | 0.00 | 76 | 1016.5 |
| 20260905210543 | 80 | 114 | 0.0 | 3.0 | 0.00 | 0.00 | 0.00 | 75 | 1016.7 |
| 20260905210052 | 80 | 0 | 0.0 | 3.0 | 0.00 | 0.00 | 0.00 | 77 | 1016.7 |
| 20260905205543 | 79 | 0 | 0.0 | 4.0 | 0.00 | 0.00 | 0.00 | 79 | 1016.8 |
| 20260905205046 | 79 | 123 | 1.0 | 4.0 | 0.00 | 0.00 | 0.00 | 79 | 1016.7 |
| 20260905204550 | 79 | 117 | 2.0 | 4.0 | 0.00 | 0.00 | 0.00 | 78 | 1017.0 |
| 20260905204043 | 79 | 115 | 2.0 | 4.0 | 0.00 | 0.00 | 0.00 | 79 | 1017.0 |
| 20260905203546 | 80 | 0 | 0.0 | 4.0 | 0.00 | 0.00 | 0.00 | 79 | 1017.1 |
| 20260905203101 | 79 | 115 | 0.0 | 4.0 | 0.00 | 0.00 | 0.00 | 78 | 1017.3 |
| 20260905202543 | 79 | 98 | 0.0 | 4.0 | 0.00 | 0.00 | 0.00 | 78 | 1017.4 |
| 20260905202043 | 79 | 115 | 2.0 | 4.0 | 0.00 | 0.00 | 0.00 | 77 | 1017.4 |
| 20260905201556 | 80 | 114 | 0.0 | 3.0 | 0.00 | 0.00 | 0.00 | 77 | 1017.4 |
| 20260905201042 | 80 | 0 | 0.0 | 4.0 | 0.00 | 0.00 | 0.00 | 78 | 1017.5 |
| 20260905200542 | 80 | 0 | 0.0 | 4.0 | 0.00 | 0.00 | 0.00 | 80 | 1017.6 |
| 20260905200104 | 80 | 0 | 0.0 | 4.0 | 0.00 | 0.00 | 0.00 | 80 | 1017.6 |
| 20260905195544 | 80 | 0 | 0.0 | 3.0 | 0.00 | 0.00 | 0.00 | 77 | 1017.6 |
| 20260905195046 | 80 | 0 | 0.0 | 2.0 | 0.00 | 0.00 | 0.00 | 79 | 1017.8 |
| 20260905194600 | 80 | 0 | 0.0 | 2.0 | 0.00 | 0.00 | 0.00 | 77 | 1017.8 |